EW3649 Weather Reports


time (UTC)temp
C
wind
direction
speed
KPH
gust
KPH
rain 1hr
cm
rain 24hr
cm
rain mn
cm
humidity
%
barometer
mb
20260503211005 27 24 0.0 8.0 0.00 0.00 0.00 44 1011.2
20260503210504 27 19 0.0 8.0 0.00 0.00 0.00 42 1011.3
20260503210005 27 28 0.0 3.2 0.00 0.00 0.00 43 1011.3
20260503205503 26 28 0.0 3.2 0.00 0.00 0.00 43 1011.4
20260503205005 26 80 0.0 4.8 0.00 0.00 0.00 43 1011.4
20260503204504 26 80 0.0 4.8 0.00 0.00 0.00 44 1011.5
20260503204004 26 0 0.0 0.0 0.00 0.00 0.00 44 1011.5
20260503203503 26 0 0.0 0.0 0.00 0.00 0.00 44 1011.5
20260503202504 26 12 0.0 6.4 0.00 0.00 0.00 44 1011.7
20260503201503 26 8 0.0 3.2 0.00 0.00 0.00 45 1011.8
20260503201004 26 7 0.0 3.2 0.00 0.00 0.00 46 1011.9
20260503200504 26 103 0.0 4.8 0.00 0.00 0.00 48 1012.0
20260503200004 26 94 0.0 4.8 0.00 0.00 0.00 47 1012.0
20260503195503 26 14 0.0 8.0 0.00 0.00 0.00 47 1012.1
20260503195005 26 15 0.0 8.0 0.00 0.00 0.00 47 1012.2
20260503194503 26 23 0.0 1.6 0.00 0.00 0.00 48 1012.2
20260503194005 25 13 0.0 6.4 0.00 0.00 0.00 47 1012.3
20260503193505 25 15 0.0 6.4 0.00 0.00 0.00 48 1012.3
20260503192503 25 32 0.0 3.2 0.00 0.00 0.00 48 1012.5
20260503192005 25 41 0.0 1.6 0.00 0.00 0.00 50 1012.6
20260503191504 25 0 0.0 0.0 0.00 0.00 0.00 50 1012.6
20260503191003 25 81 0.0 3.2 0.00 0.00 0.00 50 1012.7
20260503185504 24 0 0.0 0.0 0.00 0.00 0.00 53 1012.8
20260503185004 24 0 0.0 0.0 0.00 0.00 0.00 53 1012.9
20260503184503 24 0 0.0 0.0 0.00 0.00 0.00 53 1012.9
20260503184005 24 0 0.0 0.0 0.00 0.00 0.00 53 1013.0
20260503183503 23 0 0.0 0.0 0.00 0.00 0.00 54 1013.1
20260503182503 23 246 0.0 4.8 0.00 0.00 0.00 52 1013.1
20260503182006 23 0 0.0 0.0 0.00 0.00 0.00 54 1013.1
20260503181505 23 17 0.0 3.2 0.00 0.00 0.00 53 1013.2
20260503181005 23 17 0.0 4.8 0.00 0.00 0.00 52 1013.2
20260503180503 23 17 0.0 4.8 0.00 0.00 0.00 52 1013.3
20260503180005 23 68 0.0 3.2 0.00 0.00 0.00 53 1013.2
20260503175503 23 67 0.0 3.2 0.00 0.00 0.00 53 1013.3
20260503175005 23 68 0.0 3.2 0.00 0.00 0.00 54 1013.4
20260503174505 22 68 0.0 3.2 0.00 0.00 0.00 55 1013.4
20260503174005 22 0 0.0 0.0 0.00 0.00 0.00 55 1013.3
20260503173504 22 19 0.0 1.6 0.00 0.00 0.00 58 1013.3
20260503173005 22 19 0.0 4.8 0.00 0.00 0.00 57 1013.5
20260503172504 22 20 0.0 4.8 0.00 0.00 0.00 58 1013.5
20260503172005 22 17 0.0 1.6 0.00 0.00 0.00 58 1013.5
20260503170503 22 17 0.0 4.8 0.00 0.00 0.00 59 1013.6
20260503151004 15 0 0.0 0.0 0.00 0.00 0.00 82 1013.9
20260503150504 15 0 0.0 0.0 0.00 0.00 0.00 83 1013.8
20260503131005 10 0 0.0 0.0 0.00 0.00 0.00 90 1013.7
20260503130505 10 0 0.0 0.0 0.00 0.00 0.00 90 1013.6
20260503110504 11 0 0.0 0.0 0.00 0.00 0.00 87 1013.9
20260503090503 12 0 0.0 0.0 0.00 0.00 0.00 79 1014.1
20260503081503 13 0 0.0 0.0 0.00 0.00 0.00 76 1014.2
20260503081004 13 0 0.0 0.0 0.00 0.00 0.00 76 1014.2
20260503080503 13 0 0.0 0.0 0.00 0.00 0.00 75 1014.2
20260503072506 14 0 0.0 0.0 0.00 0.00 0.00 71 1014.1
20260503071505 15 0 0.0 0.0 0.00 0.00 0.00 70 1014.1
20260503071007 15 0 0.0 0.0 0.00 0.00 0.00 69 1014.2
20260503070505 15 0 0.0 0.0 0.00 0.00 0.00 69 1014.2
20260503055006 16 0 0.0 0.0 0.00 0.00 0.00 63 1013.8
20260503054505 16 0 0.0 0.0 0.00 0.00 0.00 64 1013.9
20260503054006 16 0 0.0 0.0 0.00 0.00 0.00 63 1013.8
20260503053505 17 0 0.0 0.0 0.00 0.00 0.00 64 1013.8
20260503053007 17 0 0.0 0.0 0.00 0.00 0.00 63 1013.8
20260503052504 17 0 0.0 0.0 0.00 0.00 0.00 62 1013.8
20260503052006 17 0 0.0 0.0 0.00 0.00 0.00 61 1013.7
20260503051505 17 0 0.0 0.0 0.00 0.00 0.00 61 1013.7
20260503051006 17 0 0.0 0.0 0.00 0.00 0.00 61 1013.7
20260503050505 17 0 0.0 0.0 0.00 0.00 0.00 64 1013.6
20260503050006 18 0 0.0 0.0 0.00 0.00 0.00 62 1013.6
20260503045504 18 0 0.0 0.0 0.00 0.00 0.00 63 1013.6
20260503045006 18 0 0.0 0.0 0.00 0.00 0.00 64 1013.6
20260503044505 18 0 0.0 0.0 0.00 0.00 0.00 65 1013.5
20260503044006 18 0 0.0 0.0 0.00 0.00 0.00 65 1013.6
20260503043507 18 0 0.0 0.0 0.00 0.00 0.00 65 1013.5
20260503043006 18 0 0.0 0.0 0.00 0.00 0.00 65 1013.5
20260503042504 18 0 0.0 0.0 0.00 0.00 0.00 64 1013.5
20260503042005 18 0 0.0 0.0 0.00 0.00 0.00 65 1013.4
20260503041505 18 0 0.0 0.0 0.00 0.00 0.00 64 1013.4
20260503041006 18 0 0.0 0.0 0.00 0.00 0.00 64 1013.3
20260503040005 19 0 0.0 0.0 0.00 0.00 0.00 63 1013.2
20260503035505 19 0 0.0 0.0 0.00 0.00 0.00 62 1013.0
20260503035006 20 0 0.0 0.0 0.00 0.00 0.00 61 1012.9
20260503034504 20 0 0.0 0.0 0.00 0.00 0.00 60 1012.9
20260503034006 20 0 0.0 0.0 0.00 0.00 0.00 59 1012.9
20260503033506 20 0 0.0 0.0 0.00 0.00 0.00 59 1012.8
20260503033005 20 13 0.0 1.6 0.00 0.00 0.00 58 1012.7
20260503032504 20 13 0.0 1.6 0.00 0.00 0.00 58 1012.7
20260503032005 20 13 0.0 1.6 0.00 0.00 0.00 57 1012.6
20260503031505 21 16 0.0 1.6 0.00 0.00 0.00 57 1012.6
20260503030505 21 17 0.0 3.2 0.00 0.00 0.00 57 1012.4
20260503030005 21 0 0.0 0.0 0.00 0.00 0.00 57 1012.4
20260503025505 21 15 0.0 3.2 0.00 0.00 0.00 57 1012.3
20260503024505 21 11 0.0 3.2 0.00 0.00 0.00 57 1012.2
20260503024005 22 11 0.0 3.2 0.00 0.00 0.00 56 1012.2
20260503023505 22 17 0.0 4.8 0.00 0.00 0.00 56 1012.2
20260503023005 22 17 0.0 4.8 0.00 0.00 0.00 56 1012.2
20260503022504 22 13 0.0 6.4 0.00 0.00 0.00 55 1012.1
20260503022005 22 16 0.0 6.4 0.00 0.00 0.00 55 1012.1
20260503021504 22 18 0.0 1.6 0.00 0.00 0.00 55 1012.1
20260503021006 22 0 0.0 0.0 0.00 0.00 0.00 54 1012.1
20260503020005 22 17 0.0 3.2 0.00 0.00 0.00 53 1012.1
20260503015504 22 18 0.0 3.2 0.00 0.00 0.00 53 1012.2
20260503015006 22 20 0.0 9.7 0.00 0.00 0.00 53 1012.2
20260503014506 22 19 0.0 12.9 0.00 0.00 0.00 53 1012.2
20260503014006 22 15 0.0 12.9 0.00 0.00 0.00 53 1012.2
20260503013505 22 11 0.0 3.2 0.00 0.00 0.00 53 1012.2
20260503013005 22 5 0.0 3.2 0.00 0.00 0.00 53 1012.2
20260503012006 22 344 0.0 6.4 0.00 0.00 0.00 53 1012.3
20260503011505 23 310 0.0 4.8 0.00 0.00 0.00 52 1012.3
20260503011005 23 18 0.0 6.4 0.00 0.00 0.00 53 1012.3
20260503010505 23 12 0.0 8.0 0.00 0.00 0.00 52 1012.4
20260503005504 23 12 0.0 6.4 0.00 0.00 0.00 52 1012.3
20260503005006 23 10 0.0 6.4 0.00 0.00 0.00 51 1012.3
20260503004005 23 6 0.0 4.8 0.00 0.00 0.00 51 1012.4
20260503003505 23 5 0.0 4.8 0.00 0.00 0.00 51 1012.4
20260503003004 23 10 0.0 1.6 0.00 0.00 0.00 51 1012.4
20260503002005 23 8 0.0 4.8 0.00 0.00 0.00 50 1012.4
20260503001506 23 14 0.0 4.8 0.00 0.00 0.00 51 1012.4
20260503001006 23 20 0.0 6.4 0.00 0.00 0.00 50 1012.3
20260503000005 23 20 0.0 1.6 0.00 0.00 0.00 51 1012.4
20260502235505 23 17 0.0 8.0 0.00 0.00 0.00 50 1012.5
20260502235005 23 20 0.0 8.0 0.00 0.00 0.00 50 1012.6
20260502234005 23 35 0.0 4.8 0.00 0.00 0.00 50 1012.7
20260502233505 23 9 0.0 9.7 0.00 0.00 0.00 51 1012.8
20260502232504 23 21 0.0 8.0 0.00 0.00 0.00 52 1013.0
20260502232007 23 6 0.0 4.8 0.00 0.00 0.00 52 1013.1
20260502231504 23 2 0.0 8.0 0.00 0.00 0.00 52 1013.2
20260502231005 23 3 0.0 8.0 0.00 0.00 0.00 52 1013.3
20260502230504 23 9 0.0 8.0 0.00 0.00 0.00 52 1013.3
20260502225505 23 39 0.0 4.8 0.00 0.00 0.00 53 1013.4
20260502225005 23 39 0.0 4.8 0.00 0.00 0.00 55 1013.4
20260502224005 23 0 0.0 0.0 0.00 0.00 0.00 58 1013.6
20260502223504 23 27 0.0 8.0 0.00 0.00 0.00 56 1013.6
20260502222505 23 15 0.0 3.2 0.00 0.00 0.00 55 1013.7
20260502221504 23 21 0.0 9.7 0.00 0.00 0.00 55 1013.9
20260502221006 23 18 0.0 6.4 0.00 0.00 0.00 55 1013.9
20260502220504 23 34 0.0 3.2 0.00 0.00 0.00 56 1014.0
20260502220005 23 24 0.0 4.8 0.00 0.00 0.00 56 1013.9
20260502215506 23 23 0.0 4.8 0.00 0.00 0.00 55 1014.0
20260502214505 23 51 0.0 9.7 0.00 0.00 0.00 56 1014.1
20260502214005 23 17 0.0 6.4 0.00 0.00 0.00 55 1014.2
20260502213504 23 16 0.0 6.4 0.00 0.00 0.00 56 1014.2
20260502213006 23 15 0.0 6.4 0.00 0.00 0.00 56 1014.2
20260502212506 23 0 0.0 0.0 0.00 0.00 0.00 57 1014.2
20260502212005 23 20 0.0 1.6 0.00 0.00 0.00 56 1014.4